Simultaneous Nadir Overpasses (SNOs) Predictions

Prediction of SNOs between GOES-16 and METOP-C Satellite Orbit:

Table of predicted SNOs for the next 14.0 days since TLE Epoch: 1/8/2022
Index Date Time (GOES-16) GOES-16 Lat,Lon METOP-C Lat,Lon Distance(km) Time Diff (sec)
1 01/09/2022 14:38:44 -0.01, -75.20 0.26, -76.46 143.71 80
2 01/10/2022 14:15:24 -0.02, -75.21 -0.84, -71.46 426.09 80
3 01/12/2022 02:37:06 0.01, -75.20 -0.20, -76.06 98.60 80
4 01/13/2022 02:13:47 0.02, -75.21 0.95, -71.07 471.32 80
5 01/14/2022 14:35:19 -0.02, -75.24 0.06, -75.63 44.16 80
6 01/17/2022 02:33:40 0.02, -75.25 -0.00, -75.23 3.45 80
7 01/19/2022 14:29:13 -0.02, -75.31 -0.15, -74.81 57.94 80
8 01/21/2022 02:50:55 0.00, -75.32 -0.89, -79.40 464.92 80
9 01/22/2022 02:27:35 -0.00, -75.34 0.20, -74.40 106.39 80
